Weather Roundup
Issued by NWS

Home | Current Version | Previous Version | Graphics & Text | Print | Product List | Glossary Off
Versions: 1 2 3 4 5 6 7 8 9 10 11 12 13 14 15 16 17 18 19 20 21 22 23 24 25 26 27 28 29 30 31 32 33 34 35 36 37 38 39 40 41 42 43 44 45 46 47 48 49 50

000
NZUS93 KARX 222359
HRRWXR

CURRENT HOURLY OBSERVATIONS ACROSS
MUCH OF THE UPPER MISSISSIPPI VALLEY
NATIONAL WEATHER SERVICE LA CROSSE WI
700 PM CDT SAT JUL 22 2017


...SOUTHEAST MINNESOTA...


CITY           SKY/WX    TMP DP  RH WIND       PRES   REMARKS
ROCHESTER      SUNNY     80  72  76 W6        29.84S
ROCHESTER/MAYO FAIR      84  69  61 W10       29.83S
WINONA         MOSUNNY   82  70  65 SW5       29.79F
AUSTIN         SUNNY     81  70  69 W6        29.85S
ALBERT LEA     MOSUNNY   82  73  74 W5        29.85S
DODGE CENTER   LGT RAIN  82  70  65 NW7       29.85S
PRESTON        SUNNY     81  71  70 W6        29.85S
OWATONNA       SUNNY     82  73  74 NW6       29.84S
FARIBAULT      SUNNY     84  68  58 NW7       29.84S
$$

...ELSEWHERE IN MINNESOTA...


CITY           SKY/WX    TMP DP  RH WIND       PRES   REMARKS
MINNEAPOLIS    MOSUNNY   87  62  43 NW10      29.81S
INTNL FALLS    SUNNY     74  56  53 W10       29.77S
DULUTH         MOSUNNY   63  58  83 SE7       29.81S
RED WING       MOSUNNY   82  68  61 CALM      29.79S
REDWOOD FALLS  MOSUNNY   86  68  54 N7        29.85F
MANKATO        SUNNY     83  71  67 NW9       29.85S
WORTHINGTON    SUNNY     83  67  58 NW8       29.91F
FAIRMONT       SUNNY     83  70  64 NW9       29.87S
$$

...SOUTHWEST WISCONSIN...


CITY           SKY/WX    TMP DP  RH WIND       PRES   REMARKS
LA CROSSE      SUNNY     85  73  67 S8        29.79F HX  91
PRAIRIE DU CHI MOSUNNY   82  70  66 W6        29.81S
BOSCOBEL       SUNNY     84  71  65 CALM      29.81S
LONE ROCK      NOT AVBL
PLATTEVILLE    MOSUNNY   83  77  82 CALM      29.83S HX  92
FORT MC COY    SUNNY     82  69  64 W5        29.82S
MAUSTON-NEW LI PTCLDY    83  71  66 W5        29.80S
VIROQUA        FAIR      79  73  82 W8        29.85R
WIS DELLS      SUNNY     83  68  60 SW5       29.81S
$$

...ELSEWHERE IN WISCONSIN...


CITY           SKY/WX    TMP DP  RH WIND       PRES   REMARKS
MILWAUKEE      MOSUNNY   76  69  79 SE7       29.80S
MADISON        MOSUNNY   81  70  69 CALM      29.80S
GREEN BAY      SUNNY     81  69  67 S7        29.77F
EAU CLAIRE     CLOUDY    74  69  85 SW8       29.80S THUNDER
BLACK RVR FLS  FAIR      85  69  58 SW6       29.79F
MEDFORD        MOSUNNY   81  67  63 W8        29.81S
WAUSAU         SUNNY     80  66  62 W8        29.77S
WIS RAPIDS     MOSUNNY   84  69  60 W7        29.80S
MARSHFIELD     SUNNY     79  67  66 W5        29.80S
RICE LAKE      SUNNY     83  64  51 W6        29.83S
$$

...NORTHEAST IOWA...


CITY           SKY/WX    TMP DP  RH WIND       PRES   REMARKS
WATERLOO       MOSUNNY   81  71  71 NW6       29.82F
DUBUQUE        PTSUNNY   80  74  81 CALM      29.84R
DECORAH        MOSUNNY   81  73  78 CALM      29.84R
MASON CITY     MOSUNNY   82  72  71 NW6       29.87S
CHARLES CITY   SUNNY     82  75  78 NW5       29.85F
OELWEIN          N/A    N/A N/A N/A MISG        N/A
$$

...ELSEWHERE IN IOWA...


CITY           SKY/WX    TMP DP  RH WIND       PRES   REMARKS
DES MOINES     PTSUNNY   86  73  65 N10       29.85R HX  93
IOWA CITY      CLOUDY    84  74  71 NW8       29.83R HX  91
FORT DODGE     CLOUDY    84  75  74 CALM      29.87S HX  92
MARSHALLTOWN   PTSUNNY   82  75  79 N5        29.84F
CEDAR RAPIDS   CLOUDY    81  76  84 NW7       29.83R
$$

...NORTHERN ILLINOIS...


CITY           SKY/WX    TMP DP  RH WIND       PRES   REMARKS
CHICAGO-OHARE  PTSUNNY   83  70  64 E6        29.79S
CHICAGO-MIDWAY PTSUNNY   83  70  64 E8        29.79S
MOLINE         MOSUNNY   84  73  69 NE5       29.79S HX  90
ROCKFORD       MOSUNNY   85  72  65 W6        29.82R HX  91
PEORIA         SUNNY     86  78  77 CALM      29.78F HX  98
$$

NOTE: "FAIR" INDICATES FEW OR NO CLOUDS BELOW 12,000 FEET WITH NO
SIGNIFICANT WEATHER AND/OR OBSTRUCTIONS TO VISIBILITY. WIND
SPEEDS ARE IN MILES-PER-HOUR.




USA.gov is the U.S. government's official web portal to all federal, state and local government web resources and services.